Flag Weather past 2 weeks in Maldonado, Uruguay

Now
64 °F

Clear.


Feels Like: 64 °F
Forecast: 61 / 87 °F
Wind: 9 mph from Northeast

Location: Capitan Corbeta

Current Time: Nov 29, 2014 at 2:16:34 AM

Latest Report: Nov 29, 2014 at 1:00 AM


Visibility: 10 mi

Pressure: 29.95 "Hg

Humidity: 68%

Dew point: 54 °F

Location of MaldonadoLocation

Historic Weather in Maldonado — Graph

°F

Maldonado temperature yesterday

Maximum temperature yesterday: 82 °F (at 3:00 PM)
Minimum temperature yesterday: 55 °F (at 6:00 AM)
Average temperature yesterday: 70 °F

Past Weeks' High & Low Weather Summary

 TemperatureHumidityPressure
High90 °F (Nov 19, 1:00 PM)100% (Nov 17, 6:00 AM)30.15 "Hg (Nov 17, 6:00 AM)
Low48 °F (Nov 14, 2:00 AM)26% (Nov 28, 3:00 PM)29.68 "Hg (Nov 19, 1:00 PM)
Average67 °F68%29.92 "Hg
* Reported Nov 14 1:00 AM — Nov 29 1:00 AM, Maldonado, Weather by CustomWeather, © 2014

Note: Actual official high and low records may vary slightly from our data, if they occured in-between our weather recording intervals... More about our weather records

Advertising

Maldonado weather history for previous 24 hours

 ConditionsComfort  
Time TempWeatherWind HumidityBarometerVisibility
1:00 AM
Nov 29
64 °FClear.9 mph68%29.95 "Hg10 mi
12:00 AM64 °FClear.9 mph68%29.98 "Hg10 mi
11:00 PM
Nov 28
68 °FClear.12 mph60%29.98 "Hg10 mi
10:00 PM68 °FClear.9 mph60%29.95 "Hg10 mi
8:00 PM75 °FSunny.13 mph50%29.95 "Hg10 mi
7:00 PM79 °FSunny.14 mph45%29.95 "Hg10 mi
6:00 PM81 °FSunny.14 mph42%29.95 "Hg10 mi
5:00 PM81 °FSunny.12 mph37%29.95 "Hg10 mi
4:00 PM82 °FSunny.7 mph30%29.98 "Hg10 mi
3:00 PM82 °FSunny.7 mph26%30.01 "Hg10 mi
2:00 PM81 °FSunny.3 mph32%30.04 "Hg10 mi
1:00 PM79 °FSunny.9 mph30%30.04 "Hg10 mi
12:00 PM73 °FSunny.3 mph41%30.07 "Hg10 mi
11:00 AM73 °FSunny.3 mph38%30.07 "Hg10 mi
9:00 AM68 °FSunny.3 mph60%30.04 "Hg10 mi
8:00 AM61 °FSunny.6 mph72%30.01 "Hg10 mi
7:00 AM57 °FSunny.5 mph77%29.98 "Hg10 mi
6:00 AM55 °FClear.3 mph82%29.98 "Hg10 mi
3:00 AM59 °FClear.3 mph88%29.98 "Hg10 mi
2:00 AM59 °FClear.3 mph88%29.98 "Hg10 mi
Weather by CustomWeather, © 2014

See weather overviewHow to use our weather pages